Weather History for KLRU - July, 2014

Change the Weather History Date:

Tuesday, July 1, 2014

  Actual Average Record
Temperature  
Mean Temperature 82 °F -  
Max Temperature 100 °F 93 °F 104 °F (1997)
Min Temperature 65 °F 67 °F 60 °F (2004)
Cooling Degree Days 18    
Growing Degree Days 32 (Base 50)    
Moisture  
Dew Point 42 °F    
Average Humidity 28    
Maximum Humidity 85    
Minimum Humidity 12    
Precipitation  
Precipitation 0.11 in - - ()
Sea Level Pressure  
Sea Level Pressure 29.98 in    
Wind  
Wind Speed 11 mph (North)    
Max Wind Speed 38 mph    
Max Gust Speed 44 mph    
Visibility 10 miles    
Events Rain , Thunderstorm    
Averages and records for this station are not official NWS values.
T = Trace of Precipitation, MM = Missing Value Source: NWS Daily Summary

Daily Weather History Graph

Daily Weather History Graph

Search for Another Location

Airport or City:

Trip Planner

Search our weather history database for the weather conditions in past years. The results will help you decide how hot, cold, wet, or windy it might be!

Date:

Astronomy

Jul. 01, 2014 Rise Set
Actual Time 6:04 AM MDT 8:18 PM MDT
Civil Twilight 5:36 AM MDT 8:46 PM MDT
Nautical Twilight 5:01 AM MDT 9:21 PM MDT
Astronomical Twilight 4:24 AM MDT 9:58 PM MDT
Moon 10:00 AM MDT (7/1) 10:59 PM MDT (7/1)
Length of Visible Light 15h 10m
Length of Day
14h 13m
Waxing Crescent, 17% of the Moon is Illuminated
Jul 1
Waxing Crescent
Jul 5
First Quarter
Jul 12
Full
Jul 18
Last Quarter
Jul 26
New

Hourly Weather History & Observations

Time (MDT) Temp. Dew Point Humidity Pressure Visibility Wind Dir Wind Speed Gust Speed Precip Events Conditions
12:15 AM 81.0 °F 33.8 °F 18% 29.92 in 10.0 mi WSW 9.2 mph - N/A   Clear
12:35 AM 80.4 °F 33.8 °F 19% 29.92 in 10.0 mi West 8.1 mph - N/A   Clear
12:55 AM 80.4 °F 34.2 °F 19% 29.91 in 10.0 mi West 9.2 mph - N/A   Clear
1:15 AM 79.7 °F 34.3 °F 19% 29.92 in 10.0 mi West 10.4 mph - N/A   Clear
1:35 AM 80.4 °F 34.7 °F 19% 29.91 in 10.0 mi West 12.7 mph - N/A   Clear
1:55 AM 79.7 °F 35.1 °F 20% 29.91 in 10.0 mi West 11.5 mph - N/A   Clear
2:15 AM 79.0 °F 35.2 °F 21% 29.91 in 10.0 mi West 12.7 mph - N/A   Clear
2:35 AM 78.8 °F 35.2 °F 21% 29.90 in 10.0 mi West 13.8 mph - N/A   Clear
2:55 AM 79.7 °F 35.6 °F 20% 29.90 in 10.0 mi West 13.8 mph - N/A   Clear
3:15 AM 78.1 °F 35.6 °F 22% 29.90 in 10.0 mi West 10.4 mph - N/A   Clear
3:35 AM 77.4 °F 35.6 °F 22% 29.90 in 10.0 mi West 9.2 mph - N/A   Clear
3:55 AM 77.9 °F 35.6 °F 22% 29.90 in 10.0 mi West 12.7 mph - N/A   Clear
4:15 AM 78.3 °F 35.6 °F 21% 29.90 in 10.0 mi West 11.5 mph - N/A   Clear
4:35 AM 77.0 °F 35.6 °F 22% 29.90 in 10.0 mi West 10.4 mph - N/A Thunderstorm Clear
4:55 AM 75.4 °F 35.4 °F 23% 29.90 in 10.0 mi West 6.9 mph - N/A   Clear
5:35 AM 73.8 °F 35.6 °F 25% 29.93 in 10.0 mi North 3.5 mph - N/A   Clear
5:55 AM 73.6 °F 35.6 °F 25% 29.94 in 10.0 mi WNW 5.8 mph - N/A   Clear
6:15 AM 75.7 °F 35.6 °F 23% 29.95 in 10.0 mi West 6.9 mph - N/A   Clear
6:35 AM 72.9 °F 35.6 °F 26% 29.95 in 10.0 mi WSW 8.1 mph - N/A   Clear
6:55 AM 73.4 °F 35.8 °F 25% 29.95 in 10.0 mi West 9.2 mph - N/A   Clear
7:15 AM 75.9 °F 36.1 °F 24% 29.96 in 10.0 mi West 8.1 mph - N/A   Clear
7:35 AM 76.6 °F 36.1 °F 23% 29.98 in 10.0 mi West 11.5 mph - N/A   Clear
7:55 AM 80.2 °F 36.5 °F 21% 29.98 in 10.0 mi West 13.8 mph - N/A   Clear
8:15 AM 79.5 °F 38.5 °F 23% 29.99 in 10.0 mi West 11.5 mph - N/A   Scattered Clouds
8:35 AM 88.5 °F 35.1 °F 15% 30.01 in 10.0 mi West 17.3 mph 21.9 mph N/A Rain Light Rain
8:55 AM 86.4 °F 34.9 °F 16% 30.00 in 10.0 mi WNW 6.9 mph 23.0 mph N/A   Mostly Cloudy
9:15 AM 82.8 °F 37.4 °F 20% 29.98 in 10.0 mi NNW 11.5 mph - N/A   Scattered Clouds
9:35 AM 88.3 °F 33.8 °F 14% 29.98 in 10.0 mi NW 13.8 mph 19.6 mph N/A   Clear
9:55 AM 89.6 °F 33.8 °F 14% 29.98 in 10.0 mi NW 11.5 mph 18.4 mph N/A   Clear
10:15 AM 88.9 °F 35.4 °F 15% 29.99 in 10.0 mi East 9.2 mph - N/A   Clear
10:35 AM 87.8 °F 37.2 °F 17% 29.99 in 10.0 mi NE 8.1 mph - N/A   Clear
10:55 AM 90.0 °F 34.5 °F 14% 29.99 in 10.0 mi NNE 11.5 mph 18.4 mph N/A   Clear
11:15 AM 89.6 °F 35.1 °F 14% 30.01 in 10.0 mi North 5.8 mph - N/A   Clear
11:35 AM 90.7 °F 34.7 °F 14% 30.02 in 10.0 mi NNE 9.2 mph - N/A   Clear
11:55 AM 92.7 °F 34.7 °F 13% 30.02 in 10.0 mi NNE 11.5 mph - N/A   Clear
12:15 PM 95.2 °F 36.1 °F 13% 30.02 in 10.0 mi ENE 5.8 mph - N/A   Clear
12:35 PM 94.3 °F 37.2 °F 14% 30.00 in 10.0 mi East 12.7 mph 17.3 mph N/A   Clear
12:55 PM 95.0 °F 36.9 °F 13% 30.00 in 10.0 mi ESE 5.8 mph - N/A   Clear
1:15 PM 94.5 °F 36.9 °F 13% 29.99 in 10.0 mi East 4.6 mph - N/A   Clear
1:35 PM 94.5 °F 36.1 °F 13% 29.99 in 10.0 mi ENE 3.5 mph - N/A   Clear
1:55 PM 95.7 °F 35.6 °F 12% 29.98 in 10.0 mi Calm Calm - N/A   Clear
2:15 PM 96.8 °F 35.8 °F 12% 29.97 in 10.0 mi NNW 4.6 mph - N/A   Clear
2:35 PM 99.1 °F 37.9 °F 12% 29.97 in 10.0 mi ESE 10.4 mph 16.1 mph N/A   Clear
2:55 PM 100.0 °F 39.6 °F 12% 29.97 in 10.0 mi SE 13.8 mph 18.4 mph N/A   Clear
3:15 PM 98.1 °F 39.7 °F 13% 29.97 in 10.0 mi ESE 11.5 mph 18.4 mph N/A   Clear
3:35 PM 97.0 °F 39.6 °F 14% 29.96 in 10.0 mi SSE 11.5 mph 18.4 mph N/A   Clear
3:55 PM 97.7 °F 44.1 °F 16% 29.96 in 10.0 mi SE 11.5 mph 20.7 mph N/A   Clear
4:15 PM 95.5 °F 47.7 °F 19% 29.96 in 10.0 mi ESE 13.8 mph 23.0 mph N/A   Clear
4:35 PM 95.0 °F 47.7 °F 20% 29.96 in 10.0 mi ESE 12.7 mph 17.3 mph N/A   Clear
5:15 PM 92.7 °F 47.8 °F 21% 29.95 in 10.0 mi ESE 13.8 mph 20.7 mph N/A   Clear
5:35 PM 78.3 °F 52.3 °F 40% 30.00 in 7.0 mi North 38.0 mph 43.7 mph N/A Rain , Thunderstorm Light Thunderstorms and Rain
5:55 PM 65.5 °F 60.8 °F 85% 30.04 in 2.0 mi NNE 19.6 mph 26.5 mph 0.05 in Rain , Thunderstorm Heavy Thunderstorms and Rain
6:15 PM 68.5 °F 58.1 °F 69% 30.03 in 7.0 mi East 17.3 mph 24.2 mph 0.05 in Rain , Thunderstorm Light Thunderstorms and Rain
6:35 PM 68.2 °F 57.6 °F 69% 30.04 in 10.0 mi NE 10.4 mph 16.1 mph 0.05 in Rain , Thunderstorm Light Thunderstorms and Rain
6:55 PM 71.4 °F 54.0 °F 54% 30.04 in 10.0 mi NE 27.6 mph 36.8 mph 0.06 in   Mostly Cloudy
7:15 PM 71.8 °F 54.0 °F 53% 30.08 in 10.0 mi NE 28.8 mph 38.0 mph N/A   Mostly Cloudy
7:35 PM 71.4 °F 54.0 °F 54% 30.08 in 10.0 mi NE 20.7 mph 24.2 mph N/A Rain , Thunderstorm Light Thunderstorms and Rain
7:55 PM 72.5 °F 53.4 °F 51% 30.08 in 10.0 mi NE 18.4 mph 27.6 mph N/A Rain Light Rain
8:15 PM 71.8 °F 52.9 °F 51% 30.08 in 10.0 mi ENE 18.4 mph 25.3 mph N/A Rain Light Rain
8:35 PM 72.3 °F 53.1 °F 51% 30.07 in 10.0 mi NE 9.2 mph - N/A   Scattered Clouds
8:55 PM 71.8 °F 54.1 °F 54% 30.04 in 10.0 mi SE 5.8 mph - N/A   Clear
9:15 PM 73.4 °F 53.1 °F 49% 30.03 in 10.0 mi SSE 12.7 mph - N/A   Clear
9:35 PM 73.4 °F 52.5 °F 48% 30.02 in 10.0 mi SSE 12.7 mph - N/A   Clear
9:55 PM 73.4 °F 52.2 °F 47% 30.03 in 10.0 mi SSE 9.2 mph - N/A   Clear
10:15 PM 74.5 °F 50.7 °F 43% 30.03 in 10.0 mi SE 10.4 mph - N/A   Clear
10:35 PM 73.8 °F 51.4 °F 45% 30.04 in 10.0 mi ESE 11.5 mph - N/A   Clear
10:55 PM 73.4 °F 52.0 °F 47% 30.05 in 10.0 mi East 6.9 mph - N/A   Clear
11:15 PM 72.0 °F 52.9 °F 51% 30.05 in 10.0 mi East 8.1 mph - N/A   Clear
11:35 PM 71.1 °F 54.7 °F 56% 30.07 in 10.0 mi East 11.5 mph - N/A   Clear
11:55 PM 71.8 °F 53.6 °F 53% 30.08 in 10.0 mi WSW 3.5 mph - N/A   Clear